Tabellarische Ansicht des 15.9.2019


Die einzelnen Werte des Tages

Uhrzeit Temperatur Luftdruck Luftfeuchte Wind Hi-Wind Taupunkt THW Index Wind Chill Heat Index Solar- strahlung Regen

00:00

8.9 C

1023.8 hpa

78 %

1.6 km/h aus 117

3.2 km/h aus E

5.3 C

8.8 C

8.9 C

8.8 C

0 W/m

0.00 mm

00:05

8.9 C

1023.8 hpa

78 %

3.2 km/h aus 115

4.8 km/h aus E

5.3 C

8.8 C

8.9 C

8.8 C

0 W/m

0.00 mm

00:10

8.8 C

1023.8 hpa

78 %

3.2 km/h aus 115

3.2 km/h aus E

5.2 C

8.7 C

8.8 C

8.7 C

0 W/m

0.00 mm

00:15

8.7 C

1023.4 hpa

78 %

3.2 km/h aus 114

3.2 km/h aus E

5.1 C

8.6 C

8.7 C

8.6 C

0 W/m

0.00 mm

00:20

8.7 C

1023.4 hpa

79 %

1.6 km/h aus 116

3.2 km/h aus E

5.2 C

8.6 C

8.7 C

8.6 C

0 W/m

0.00 mm

00:25

8.6 C

1023.4 hpa

79 %

1.6 km/h aus 117

3.2 km/h aus E

5.2 C

8.5 C

8.6 C

8.5 C

0 W/m

0.00 mm

00:30

8.6 C

1023.2 hpa

80 %

1.6 km/h aus 115

3.2 km/h aus E

5.3 C

8.4 C

8.6 C

8.4 C

0 W/m

0.00 mm

00:35

8.4 C

1023.2 hpa

80 %

0.0 km/h aus 117

0.0 km/h aus ---

5.2 C

8.3 C

8.4 C

8.3 C

0 W/m

0.00 mm

00:40

8.4 C

1023.2 hpa

80 %

0.0 km/h aus 117

0.0 km/h aus ---

5.1 C

8.3 C

8.4 C

8.3 C

0 W/m

0.00 mm

00:45

8.3 C

1023.2 hpa

80 %

0.0 km/h aus 114

0.0 km/h aus ---

5.1 C

8.2 C

8.3 C

8.2 C

0 W/m

0.00 mm

00:50

8.2 C

1023.2 hpa

80 %

0.0 km/h aus 116

0.0 km/h aus ---

5.0 C

8.1 C

8.2 C

8.1 C

0 W/m

0.00 mm

00:55

8.2 C

1023.2 hpa

80 %

0.0 km/h aus 117

0.0 km/h aus ---

4.9 C

8.1 C

8.2 C

8.1 C

0 W/m

0.00 mm

01:00

8.1 C

1022.9 hpa

80 %

0.0 km/h aus 117

0.0 km/h aus ---

4.8 C

7.9 C

8.1 C

7.9 C

0 W/m

0.00 mm

01:05

8.0 C

1022.9 hpa

80 %

0.0 km/h aus 117

0.0 km/h aus ---

4.8 C

7.9 C

8.0 C

7.9 C

0 W/m

0.00 mm

01:10

7.9 C

1022.9 hpa

80 %

0.0 km/h aus 116

0.0 km/h aus ---

4.7 C

7.8 C

7.9 C

7.8 C

0 W/m

0.00 mm

01:15

7.9 C

1022.8 hpa

80 %

0.0 km/h aus 115

0.0 km/h aus ---

4.6 C

7.8 C

7.9 C

7.8 C

0 W/m

0.00 mm

01:20

7.8 C

1022.8 hpa

80 %

0.0 km/h aus 115

0.0 km/h aus ---

4.6 C

7.7 C

7.8 C

7.7 C

0 W/m

0.00 mm

01:25

7.8 C

1022.8 hpa

80 %

0.0 km/h aus 116

0.0 km/h aus ---

4.5 C

7.7 C

7.8 C

7.7 C

0 W/m

0.00 mm

01:30

7.7 C

1022.8 hpa

80 %

0.0 km/h aus 117

0.0 km/h aus ---

4.5 C

7.6 C

7.7 C

7.6 C

0 W/m

0.00 mm

01:35

7.7 C

1022.8 hpa

81 %

0.0 km/h aus 116

0.0 km/h aus ---

4.6 C

7.6 C

7.7 C

7.6 C

0 W/m

0.00 mm

01:40

7.6 C

1022.8 hpa

81 %

1.6 km/h aus 117

3.2 km/h aus E

4.6 C

7.5 C

7.6 C

7.5 C

0 W/m

0.00 mm

01:45

7.6 C

1022.6 hpa

81 %

3.2 km/h aus 115

4.8 km/h aus E

4.5 C

7.4 C

7.6 C

7.4 C

0 W/m

0.00 mm

01:50

7.5 C

1022.6 hpa

81 %

1.6 km/h aus 114

4.8 km/h aus E

4.4 C

7.4 C

7.5 C

7.4 C

0 W/m

0.00 mm

01:55

7.5 C

1022.6 hpa

81 %

0.0 km/h aus 117

1.6 km/h aus E

4.4 C

7.4 C

7.5 C

7.4 C

0 W/m

0.00 mm

02:00

7.4 C

1022.3 hpa

81 %

0.0 km/h aus 116

3.2 km/h aus E

4.4 C

7.3 C

7.4 C

7.3 C

0 W/m

0.00 mm

02:05

7.4 C

1022.3 hpa

81 %

3.2 km/h aus 117

4.8 km/h aus E

4.4 C

7.3 C

7.4 C

7.3 C

0 W/m

0.00 mm

02:10

7.4 C

1022.3 hpa

82 %

3.2 km/h aus 116

4.8 km/h aus E

4.5 C

7.3 C

7.4 C

7.3 C

0 W/m

0.00 mm

02:15

7.4 C

1022.2 hpa

82 %

0.0 km/h aus 114

3.2 km/h aus E

4.5 C

7.3 C

7.4 C

7.3 C

0 W/m

0.00 mm

02:20

7.3 C

1022.2 hpa

82 %

1.6 km/h aus 115

3.2 km/h aus E

4.5 C

7.2 C

7.3 C

7.2 C

0 W/m

0.00 mm

02:25

7.3 C

1022.2 hpa

82 %

0.0 km/h aus 115

0.0 km/h aus ---

4.5 C

7.2 C

7.3 C

7.2 C

0 W/m

0.00 mm

02:30

7.3 C

1022.1 hpa

83 %

0.0 km/h aus 117

0.0 km/h aus ---

4.6 C

7.2 C

7.3 C

7.2 C

0 W/m

0.00 mm

02:35

7.3 C

1022.1 hpa

83 %

0.0 km/h aus 117

0.0 km/h aus ---

4.6 C

7.2 C

7.3 C

7.2 C

0 W/m

0.00 mm

02:40

7.3 C

1022.1 hpa

83 %

0.0 km/h aus 116

0.0 km/h aus ---

4.6 C

7.2 C

7.3 C

7.2 C

0 W/m

0.00 mm

02:45

7.2 C

1021.9 hpa

83 %

0.0 km/h aus 117

1.6 km/h aus E

4.5 C

7.2 C

7.2 C

7.2 C

0 W/m

0.00 mm

02:50

7.2 C

1021.9 hpa

83 %

1.6 km/h aus 112

4.8 km/h aus E

4.5 C

7.1 C

7.2 C

7.1 C

0 W/m

0.00 mm

02:55

7.2 C

1021.9 hpa

83 %

3.2 km/h aus 115

4.8 km/h aus E

4.5 C

7.1 C

7.2 C

7.1 C

0 W/m

0.00 mm

03:00

7.1 C

1021.7 hpa

83 %

3.2 km/h aus 118

4.8 km/h aus E

4.4 C

7.1 C

7.1 C

7.1 C

0 W/m

0.00 mm

03:05

7.1 C

1021.7 hpa

83 %

1.6 km/h aus 117

4.8 km/h aus E

4.4 C

7.0 C

7.1 C

7.0 C

0 W/m

0.00 mm

03:10

7.0 C

1021.7 hpa

83 %

0.0 km/h aus 116

1.6 km/h aus E

4.3 C

6.9 C

7.0 C

6.9 C

0 W/m

0.00 mm

03:15

6.9 C

1021.6 hpa

83 %

3.2 km/h aus 117

4.8 km/h aus E

4.3 C

6.9 C

6.9 C

6.9 C

0 W/m

0.00 mm

03:20

6.9 C

1021.6 hpa

83 %

1.6 km/h aus 113

4.8 km/h aus E

4.3 C

6.9 C

6.9 C

6.9 C

0 W/m

0.00 mm

03:25

6.9 C

1021.6 hpa

84 %

0.0 km/h aus 115

0.0 km/h aus ---

4.4 C

6.8 C

6.9 C

6.8 C

0 W/m

0.00 mm

03:30

6.8 C

1021.3 hpa

84 %

0.0 km/h aus 117

0.0 km/h aus ---

4.3 C

6.8 C

6.8 C

6.8 C

0 W/m

0.00 mm

03:35

6.8 C

1021.3 hpa

84 %

3.2 km/h aus 116

6.4 km/h aus E

4.3 C

6.8 C

6.8 C

6.8 C

0 W/m

0.00 mm

03:40

6.9 C

1021.3 hpa

86 %

6.4 km/h aus 117

8.0 km/h aus SE

4.8 C

5.8 C

5.8 C

6.9 C

0 W/m

0.00 mm

03:45

6.9 C

1021.1 hpa

86 %

6.4 km/h aus 117

8.0 km/h aus SSE

4.8 C

5.8 C

5.8 C

6.9 C

0 W/m

0.00 mm

03:50

6.9 C

1021.1 hpa

86 %

4.8 km/h aus 115

6.4 km/h aus SSE

4.8 C

6.3 C

6.4 C

6.9 C

0 W/m

0.00 mm

03:55

6.9 C

1021.1 hpa

87 %

3.2 km/h aus 115

6.4 km/h aus SSE

4.9 C

6.9 C

6.9 C

6.9 C

0 W/m

0.00 mm

04:00

6.9 C

1020.8 hpa

87 %

3.2 km/h aus 116

4.8 km/h aus SSE

4.9 C

6.9 C

6.9 C

6.9 C

0 W/m

0.00 mm

04:05

6.9 C

1020.8 hpa

87 %

3.2 km/h aus 117

4.8 km/h aus SSE

4.9 C

6.9 C

6.9 C

6.9 C

0 W/m

0.00 mm

04:10

7.0 C

1020.8 hpa

87 %

3.2 km/h aus 117

4.8 km/h aus SSE

5.0 C

7.0 C

7.0 C

7.0 C

0 W/m

0.00 mm

04:15

7.0 C

1020.7 hpa

88 %

3.2 km/h aus 117

4.8 km/h aus SSE

5.1 C

7.0 C

7.0 C

7.0 C

0 W/m

0.00 mm

04:20

6.9 C

1020.7 hpa

88 %

3.2 km/h aus 117

6.4 km/h aus S

5.1 C

6.9 C

6.9 C

6.9 C

0 W/m

0.00 mm

04:25

6.9 C

1020.7 hpa

88 %

3.2 km/h aus 114

4.8 km/h aus S

5.1 C

6.9 C

6.9 C

6.9 C

0 W/m

0.00 mm

04:30

6.9 C

1020.7 hpa

88 %

3.2 km/h aus 115

6.4 km/h aus S

5.1 C

6.9 C

6.9 C

6.9 C

0 W/m

0.00 mm

04:35

6.9 C

1020.7 hpa

88 %

6.4 km/h aus 117

8.0 km/h aus S

5.1 C

5.8 C

5.8 C

6.9 C

0 W/m

0.00 mm

04:40

7.0 C

1020.7 hpa

88 %

6.4 km/h aus 117

9.7 km/h aus S

5.1 C

5.9 C

5.9 C

7.0 C

0 W/m

0.00 mm

04:45

7.1 C

1020.5 hpa

89 %

6.4 km/h aus 116

9.7 km/h aus S

5.4 C

6.0 C

5.9 C

7.1 C

0 W/m

0.00 mm

04:50

7.2 C

1020.5 hpa

89 %

6.4 km/h aus 117

9.7 km/h aus S

5.5 C

6.2 C

6.1 C

7.2 C

0 W/m

0.00 mm

04:55

7.3 C

1020.5 hpa

89 %

4.8 km/h aus 113

6.4 km/h aus SSW

5.6 C

6.8 C

6.7 C

7.3 C

0 W/m

0.00 mm

05:00

7.3 C

1020.3 hpa

89 %

4.8 km/h aus 114

8.0 km/h aus S

5.6 C

6.8 C

6.7 C

7.3 C

0 W/m

0.00 mm

05:05

7.3 C

1020.3 hpa

89 %

4.8 km/h aus 117

6.4 km/h aus S

5.6 C

6.8 C

6.7 C

7.3 C

0 W/m

0.00 mm

05:10

7.3 C

1020.3 hpa

89 %

4.8 km/h aus 118

8.0 km/h aus S

5.6 C

6.8 C

6.7 C

7.3 C

0 W/m

0.00 mm

05:15

7.3 C

1020.2 hpa

90 %

6.4 km/h aus 117

9.7 km/h aus SSW

5.8 C

6.3 C

6.3 C

7.4 C

0 W/m

0.00 mm

05:20

7.5 C

1020.2 hpa

90 %

9.7 km/h aus 115

16.1 km/h aus S

6.0 C

5.8 C

5.7 C

7.6 C

0 W/m

0.00 mm

05:25

7.7 C

1020.2 hpa

90 %

11.3 km/h aus 114

16.1 km/h aus S

6.2 C

5.8 C

5.7 C

7.8 C

0 W/m

0.00 mm

05:30

7.9 C

1020.2 hpa

90 %

9.7 km/h aus 115

16.1 km/h aus S

6.4 C

6.3 C

6.3 C

8.0 C

0 W/m

0.00 mm

05:35

8.1 C

1020.2 hpa

90 %

11.3 km/h aus 117

17.7 km/h aus SSW

6.5 C

6.2 C

6.1 C

8.1 C

0 W/m

0.00 mm

05:40

8.2 C

1020.2 hpa

90 %

9.7 km/h aus 117

16.1 km/h aus SSE

6.6 C

6.6 C

6.5 C

8.3 C

0 W/m

0.00 mm

05:45

8.3 C

1020.1 hpa

90 %

9.7 km/h aus 117

16.1 km/h aus S

6.7 C

6.8 C

6.7 C

8.4 C

0 W/m

0.00 mm

05:50

8.4 C

1020.1 hpa

90 %

9.7 km/h aus 117

16.1 km/h aus S

6.8 C

6.9 C

6.8 C

8.5 C

0 W/m

0.00 mm

05:55

8.5 C

1020.1 hpa

90 %

9.7 km/h aus 115

16.1 km/h aus S

7.0 C

7.1 C

6.9 C

8.6 C

0 W/m

0.00 mm

06:00

8.6 C

1019.8 hpa

90 %

8.0 km/h aus 113

14.5 km/h aus S

7.0 C

7.4 C

7.3 C

8.7 C

0 W/m

0.00 mm

06:05

8.7 C

1019.8 hpa

90 %

8.0 km/h aus 117

11.3 km/h aus S

7.1 C

7.6 C

7.4 C

8.8 C

0 W/m

0.00 mm

06:10

8.7 C

1019.8 hpa

90 %

8.0 km/h aus 117

14.5 km/h aus SSW

7.1 C

7.6 C

7.4 C

8.8 C

0 W/m

0.00 mm

06:15

8.7 C

1019.7 hpa

90 %

6.4 km/h aus 116

11.3 km/h aus S

7.2 C

8.0 C

7.9 C

8.8 C

0 W/m

0.00 mm

06:20

8.7 C

1019.7 hpa

89 %

6.4 km/h aus 117

11.3 km/h aus S

7.0 C

8.0 C

7.9 C

8.8 C

0 W/m

0.00 mm

06:25

8.7 C

1019.7 hpa

89 %

8.0 km/h aus 114

11.3 km/h aus S

7.0 C

7.6 C

7.5 C

8.8 C

0 W/m

0.00 mm

06:30

8.7 C

1019.6 hpa

89 %

9.7 km/h aus 115

16.1 km/h aus S

7.0 C

7.3 C

7.2 C

8.8 C

0 W/m

0.00 mm

06:35

8.8 C

1019.6 hpa

89 %

8.0 km/h aus 117

14.5 km/h aus S

7.1 C

7.7 C

7.6 C

8.9 C

0 W/m

0.00 mm

06:40

8.8 C

1019.6 hpa

89 %

8.0 km/h aus 117

11.3 km/h aus S

7.1 C

7.8 C

7.7 C

8.9 C

0 W/m

0.00 mm

06:45

8.9 C

1020.1 hpa

89 %

8.0 km/h aus 117

17.7 km/h aus SE

7.2 C

7.8 C

7.7 C

9.0 C

0 W/m

0.00 mm

06:50

8.9 C

1020.1 hpa

88 %

9.7 km/h aus 116

16.1 km/h aus SSW

7.1 C

7.5 C

7.4 C

9.0 C

4 W/m

0.00 mm

06:55

9.1 C

1020.1 hpa

88 %

9.7 km/h aus 113

17.7 km/h aus S

7.2 C

7.7 C

7.6 C

9.1 C

8 W/m

0.00 mm

07:00

9.2 C

1020.1 hpa

88 %

9.7 km/h aus 116

16.1 km/h aus S

7.3 C

7.8 C

7.7 C

9.3 C

11 W/m

0.00 mm

07:05

9.2 C

1020.1 hpa

88 %

8.0 km/h aus 117

14.5 km/h aus S

7.3 C

8.2 C

8.1 C

9.3 C

13 W/m

0.00 mm

07:10

9.3 C

1020.1 hpa

88 %

8.0 km/h aus 116

11.3 km/h aus SSW

7.4 C

8.3 C

8.2 C

9.4 C

16 W/m

0.00 mm

07:15

9.3 C

1019.8 hpa

88 %

8.0 km/h aus 117

12.9 km/h aus S

7.4 C

8.3 C

8.2 C

9.4 C

19 W/m

0.00 mm

07:20

9.4 C

1019.8 hpa

87 %

9.7 km/h aus 116

17.7 km/h aus SSW

7.3 C

8.1 C

8.0 C

9.5 C

21 W/m

0.00 mm

07:25

9.4 C

1019.8 hpa

87 %

9.7 km/h aus 114

14.5 km/h aus S

7.4 C

8.2 C

8.1 C

9.6 C

24 W/m

0.00 mm

07:30

9.6 C

1019.6 hpa

87 %

9.7 km/h aus 116

17.7 km/h aus S

7.5 C

8.3 C

8.2 C

9.7 C

26 W/m

0.00 mm

07:35

9.7 C

1019.6 hpa

87 %

8.0 km/h aus 117

14.5 km/h aus S

7.6 C

8.7 C

8.6 C

9.8 C

28 W/m

0.00 mm

07:40

9.8 C

1019.6 hpa

87 %

8.0 km/h aus 117

11.3 km/h aus S

7.7 C

8.8 C

8.7 C

9.9 C

35 W/m

0.00 mm

07:45

9.8 C

1019.6 hpa

87 %

8.0 km/h aus 117

11.3 km/h aus S

7.8 C

8.9 C

8.8 C

9.9 C

41 W/m

0.00 mm

07:50

10.0 C

1019.6 hpa

87 %

6.4 km/h aus 113

11.3 km/h aus SSW

7.9 C

9.5 C

9.4 C

10.1 C

49 W/m

0.00 mm

07:55

10.2 C

1019.6 hpa

87 %

8.0 km/h aus 116

16.1 km/h aus S

8.1 C

9.3 C

9.2 C

10.2 C

57 W/m

0.00 mm

08:00

10.4 C

1019.7 hpa

86 %

9.7 km/h aus 117

14.5 km/h aus SSW

8.1 C

9.2 C

9.2 C

10.4 C

68 W/m

0.00 mm

08:05

10.6 C

1019.7 hpa

86 %

8.0 km/h aus 117

14.5 km/h aus SW

8.4 C

9.7 C

9.7 C

10.6 C

78 W/m

0.00 mm

08:10

10.8 C

1019.7 hpa

85 %

8.0 km/h aus 115

16.1 km/h aus S

8.4 C

10.0 C

10.0 C

10.8 C

134 W/m

0.00 mm

08:15

11.1 C

1019.6 hpa

85 %

8.0 km/h aus 116

16.1 km/h aus S

8.7 C

10.3 C

10.3 C

11.1 C

163 W/m

0.00 mm

08:20

11.3 C

1019.6 hpa

84 %

9.7 km/h aus 113

16.1 km/h aus S

8.7 C

10.2 C

10.3 C

11.3 C

144 W/m

0.00 mm

08:25

11.6 C

1019.6 hpa

83 %

11.3 km/h aus 118

19.3 km/h aus SSW

8.8 C

10.3 C

10.4 C

11.5 C

159 W/m

0.00 mm

08:30

11.8 C

1019.5 hpa

82 %

8.0 km/h aus 116

12.9 km/h aus S

8.8 C

10.9 C

11.1 C

11.7 C

124 W/m

0.00 mm

08:35

12.0 C

1019.5 hpa

82 %

9.7 km/h aus 117

16.1 km/h aus SSW

9.0 C

10.9 C

11.1 C

11.9 C

214 W/m

0.00 mm

08:40

12.3 C

1019.5 hpa

81 %

11.3 km/h aus 115

17.7 km/h aus SW

9.2 C

11.1 C

11.2 C

12.2 C

272 W/m

0.00 mm

08:45

12.7 C

1019.2 hpa

79 %

11.3 km/h aus 113

19.3 km/h aus SSW

9.2 C

11.6 C

11.7 C

12.6 C

266 W/m

0.00 mm

08:50

13.1 C

1019.2 hpa

78 %

12.9 km/h aus 117

19.3 km/h aus S

9.4 C

11.6 C

11.8 C

12.9 C

242 W/m

0.00 mm

08:55

13.8 C

1019.2 hpa

73 %

11.3 km/h aus 117

22.5 km/h aus SSW

9.0 C

12.7 C

13.0 C

13.4 C

257 W/m

0.00 mm

09:00

14.2 C

1019.3 hpa

70 %

12.9 km/h aus 116

20.9 km/h aus S

8.8 C

12.6 C

13.1 C

13.7 C

253 W/m

0.00 mm

09:05

14.3 C

1019.3 hpa

69 %

9.7 km/h aus 114

17.7 km/h aus SSE

8.7 C

13.4 C

13.9 C

13.9 C

246 W/m

0.00 mm

09:10

14.3 C

1019.3 hpa

70 %

9.7 km/h aus 115

17.7 km/h aus S

8.9 C

13.4 C

13.9 C

13.9 C

214 W/m

0.00 mm

09:15

14.5 C

1019.6 hpa

69 %

8.0 km/h aus 117

14.5 km/h aus SSW

8.9 C

13.8 C

14.3 C

14.1 C

273 W/m

0.00 mm

09:20

14.9 C

1019.6 hpa

69 %

9.7 km/h aus 117

17.7 km/h aus S

9.3 C

14.2 C

14.6 C

14.5 C

341 W/m

0.00 mm

09:25

15.3 C

1019.6 hpa

68 %

8.0 km/h aus 118

16.1 km/h aus S

9.4 C

14.8 C

15.2 C

14.8 C

351 W/m

0.00 mm

09:30

15.4 C

1019.6 hpa

66 %

11.3 km/h aus 115

19.3 km/h aus S

9.1 C

14.5 C

15.0 C

14.9 C

358 W/m

0.00 mm

09:35

15.7 C

1019.6 hpa

66 %

9.7 km/h aus 116

17.7 km/h aus SSE

9.3 C

15.0 C

15.4 C

15.2 C

350 W/m

0.00 mm

09:40

15.9 C

1019.6 hpa

66 %

9.7 km/h aus 117

17.7 km/h aus SSW

9.5 C

15.3 C

15.7 C

15.4 C

326 W/m

0.00 mm

09:45

16.2 C

1019.4 hpa

63 %

11.3 km/h aus 117

19.3 km/h aus SSW

9.2 C

15.4 C

15.9 C

15.7 C

254 W/m

0.00 mm

09:50

16.3 C

1019.4 hpa

63 %

11.3 km/h aus 116

19.3 km/h aus S

9.2 C

15.5 C

16.0 C

15.8 C

171 W/m

0.00 mm

09:55

16.3 C

1019.4 hpa

62 %

12.9 km/h aus 115

20.9 km/h aus SSW

9.0 C

15.1 C

15.6 C

15.7 C

168 W/m

0.00 mm

10:00

16.4 C

1019.4 hpa

62 %

12.9 km/h aus 115

20.9 km/h aus SSW

9.1 C

15.2 C

15.7 C

15.8 C

186 W/m

0.00 mm

10:05

16.6 C

1019.4 hpa

61 %

11.3 km/h aus 117

19.3 km/h aus WSW

9.0 C

15.7 C

16.3 C

15.9 C

260 W/m

0.00 mm

10:10

17.0 C

1019.4 hpa

61 %

6.4 km/h aus 115

16.1 km/h aus S

9.4 C

16.4 C

17.0 C

16.4 C

345 W/m

0.00 mm

10:15

16.9 C

1019.4 hpa

60 %

14.5 km/h aus 115

24.1 km/h aus SSW

9.1 C

15.3 C

15.9 C

16.3 C

348 W/m

0.00 mm

10:20

16.7 C

1019.4 hpa

60 %

14.5 km/h aus 115

27.4 km/h aus SSW

8.9 C

14.9 C

15.6 C

16.1 C

362 W/m

0.00 mm

10:25

17.1 C

1019.4 hpa

61 %

9.7 km/h aus 117

20.9 km/h aus SW

9.5 C

16.6 C

17.1 C

16.6 C

375 W/m

0.00 mm

10:30

17.2 C

1019.1 hpa

61 %

11.3 km/h aus 117

22.5 km/h aus SSW

9.6 C

16.6 C

17.2 C

16.7 C

450 W/m

0.00 mm

10:35

17.4 C

1019.1 hpa

60 %

12.9 km/h aus 115

22.5 km/h aus SW

9.6 C

16.4 C

16.9 C

16.9 C

435 W/m

0.00 mm

10:40

17.7 C

1019.1 hpa

60 %

11.3 km/h aus 115

20.9 km/h aus SSW

9.9 C

17.2 C

17.7 C

17.2 C

455 W/m

0.00 mm

10:45

18.0 C

1019.1 hpa

58 %

12.9 km/h aus 116

25.7 km/h aus SSE

9.6 C

17.1 C

17.6 C

17.4 C

382 W/m

0.00 mm

10:50

17.8 C

1019.1 hpa

59 %

11.3 km/h aus 117

25.7 km/h aus SSW

9.7 C

17.3 C

17.8 C

17.3 C

331 W/m

0.00 mm

10:55

18.0 C

1019.1 hpa

58 %

14.5 km/h aus 117

24.1 km/h aus S

9.6 C

16.6 C

17.2 C

17.4 C

440 W/m

0.00 mm

11:00

18.2 C

1018.9 hpa

59 %

16.1 km/h aus 114

27.4 km/h aus SW

10.0 C

16.4 C

16.9 C

17.7 C

469 W/m

0.00 mm

11:05

18.6 C

1018.9 hpa

58 %

11.3 km/h aus 115

19.3 km/h aus SSW

10.1 C

18.1 C

18.6 C

18.1 C

423 W/m

0.00 mm

11:10

19.1 C

1018.9 hpa

56 %

9.7 km/h aus 117

19.3 km/h aus SSE

10.1 C

18.5 C

19.1 C

18.5 C

459 W/m

0.00 mm

11:15

19.3 C

1018.7 hpa

52 %

14.5 km/h aus 117

25.7 km/h aus SW

9.2 C

17.8 C

18.6 C

18.6 C

533 W/m

0.00 mm

11:20

19.6 C

1018.7 hpa

51 %

9.7 km/h aus 117

17.7 km/h aus SW

9.2 C

18.9 C

19.6 C

18.9 C

472 W/m

0.00 mm

11:25

19.6 C

1018.7 hpa

52 %

11.3 km/h aus 114

20.9 km/h aus SW

9.4 C

18.9 C

19.6 C

18.9 C

472 W/m

0.00 mm

11:30

19.6 C

1018.6 hpa

50 %

14.5 km/h aus 117

25.7 km/h aus WSW

8.9 C

18.1 C

18.9 C

18.8 C

515 W/m

0.00 mm

11:35

19.7 C

1018.6 hpa

51 %

12.9 km/h aus 118

22.5 km/h aus SSW

9.3 C

18.7 C

19.4 C

19.0 C

519 W/m

0.00 mm

11:40

19.7 C

1018.6 hpa

50 %

16.1 km/h aus 117

29.0 km/h aus SSW

8.9 C

17.8 C

18.6 C

18.9 C

456 W/m

0.00 mm

11:45

19.6 C

1018.5 hpa

50 %

11.3 km/h aus 114

22.5 km/h aus SSW

8.8 C

18.8 C

19.6 C

18.8 C

382 W/m

0.00 mm

11:50

20.2 C

1018.5 hpa

49 %

11.3 km/h aus 115

24.1 km/h aus SW

9.2 C

19.4 C

20.2 C

19.4 C

561 W/m

0.00 mm

11:55

20.5 C

1018.5 hpa

48 %

14.5 km/h aus 117

24.1 km/h aus WSW

9.1 C

18.8 C

19.7 C

19.6 C

584 W/m

0.00 mm

12:00

20.6 C

1018.5 hpa

49 %

11.3 km/h aus 117

19.3 km/h aus WSW

9.5 C

19.7 C

20.6 C

19.7 C

369 W/m

0.00 mm

12:05

20.1 C

1018.5 hpa

49 %

12.9 km/h aus 116

29.0 km/h aus SSW

9.0 C

18.9 C

19.7 C

19.3 C

317 W/m

0.00 mm

12:10

20.1 C

1018.5 hpa

50 %

11.3 km/h aus 114

25.7 km/h aus SSW

9.3 C

19.3 C

20.1 C

19.3 C

328 W/m

0.00 mm

12:15

20.1 C

1018.1 hpa

49 %

11.3 km/h aus 117

25.7 km/h aus SSW

9.1 C

19.3 C

20.1 C

19.3 C

383 W/m

0.00 mm

12:20

20.3 C

1018.1 hpa

49 %

9.7 km/h aus 116

20.9 km/h aus SSW

9.3 C

19.5 C

20.3 C

19.5 C

402 W/m

0.00 mm

12:25

20.4 C

1018.1 hpa

46 %

16.1 km/h aus 117

30.6 km/h aus S

8.4 C

18.3 C

19.3 C

19.4 C

426 W/m

0.00 mm

12:30

20.8 C

1018.0 hpa

46 %

12.9 km/h aus 114

25.7 km/h aus SW

8.8 C

19.4 C

20.5 C

19.8 C

514 W/m

0.00 mm

12:35

20.9 C

1018.0 hpa

44 %

19.3 km/h aus 115

29.0 km/h aus SW

8.2 C

18.0 C

19.2 C

19.7 C

448 W/m

0.00 mm

12:40

21.2 C

1018.0 hpa

45 %

14.5 km/h aus 118

32.2 km/h aus SW

8.8 C

19.2 C

20.4 C

19.9 C

532 W/m

0.00 mm

12:45

21.2 C

1018.0 hpa

43 %

17.7 km/h aus 117

30.6 km/h aus WSW

8.1 C

18.4 C

19.7 C

19.8 C

501 W/m

0.00 mm

12:50

21.5 C

1018.0 hpa

44 %

9.7 km/h aus 117

19.3 km/h aus SSW

8.7 C

20.3 C

21.5 C

20.3 C

497 W/m

0.00 mm

12:55

21.5 C

1018.0 hpa

43 %

12.9 km/h aus 114

27.4 km/h aus SW

8.4 C

20.0 C

21.2 C

20.3 C

465 W/m

0.00 mm

13:00

21.3 C

1018.0 hpa

43 %

17.7 km/h aus 114

30.6 km/h aus WSW

8.2 C

18.6 C

19.8 C

20.0 C

517 W/m

0.00 mm

13:05

21.2 C

1018.0 hpa

43 %

14.5 km/h aus 117

25.7 km/h aus WSW

8.1 C

19.1 C

20.4 C

19.8 C

491 W/m

0.00 mm

13:10

21.5 C

1018.0 hpa

42 %

16.1 km/h aus 117

30.6 km/h aus WSW

8.0 C

19.1 C

20.3 C

20.2 C

564 W/m

0.00 mm

13:15

21.6 C

1018.0 hpa

43 %

16.1 km/h aus 115

32.2 km/h aus SSW

8.4 C

19.2 C

20.4 C

20.3 C

549 W/m

0.00 mm

13:20

21.9 C

1018.0 hpa

42 %

12.9 km/h aus 115

24.1 km/h aus SW

8.4 C

20.5 C

21.6 C

20.8 C

570 W/m

0.00 mm

13:25

22.1 C

1018.0 hpa

40 %

16.1 km/h aus 116

32.2 km/h aus SW

7.9 C

19.8 C

20.9 C

21.0 C

564 W/m

0.00 mm

13:30

22.0 C

1017.8 hpa

40 %

16.1 km/h aus 117

32.2 km/h aus SW

7.8 C

19.7 C

20.8 C

20.8 C

572 W/m

0.00 mm

13:35

22.6 C

1017.8 hpa

40 %

12.9 km/h aus 116

27.4 km/h aus WSW

8.3 C

21.4 C

22.3 C

21.7 C

583 W/m

0.00 mm

13:40

22.3 C

1017.8 hpa

39 %

16.1 km/h aus 115

32.2 km/h aus SW

7.7 C

20.1 C

21.2 C

21.3 C

453 W/m

0.00 mm

13:45

22.0 C

1017.6 hpa

40 %

11.3 km/h aus 117

25.7 km/h aus SW

7.8 C

20.8 C

22.0 C

20.8 C

411 W/m

0.00 mm

13:50

21.9 C

1017.6 hpa

40 %

12.9 km/h aus 117

25.7 km/h aus SSW

7.7 C

20.4 C

21.6 C

20.7 C

387 W/m

0.00 mm

13:55

21.9 C

1017.6 hpa

40 %

14.5 km/h aus 116

25.7 km/h aus SSW

7.7 C

19.9 C

21.2 C

20.7 C

510 W/m

0.00 mm

14:00

22.3 C

1017.5 hpa

40 %

17.7 km/h aus 115

30.6 km/h aus SSW

8.0 C

19.8 C

20.8 C

21.3 C

495 W/m

0.00 mm

14:05

22.5 C

1017.5 hpa

40 %

14.5 km/h aus 114

24.1 km/h aus SSW

8.2 C

20.8 C

21.7 C

21.6 C

465 W/m

0.00 mm

14:10

22.7 C

1017.5 hpa

40 %

12.9 km/h aus 117

22.5 km/h aus SW

8.4 C

21.6 C

22.4 C

21.9 C

475 W/m

0.00 mm

14:15

22.7 C

1017.1 hpa

39 %

16.1 km/h aus 116

30.6 km/h aus SW

8.0 C

20.7 C

21.5 C

21.8 C

489 W/m

0.00 mm

14:20

22.6 C

1017.1 hpa

38 %

16.1 km/h aus 117

25.7 km/h aus SSW

7.6 C

20.5 C

21.4 C

21.7 C

461 W/m

0.00 mm

14:25

22.6 C

1017.1 hpa

38 %

16.1 km/h aus 114

29.0 km/h aus SSW

7.5 C

20.4 C

21.4 C

21.6 C

468 W/m

0.00 mm

14:30

22.6 C

1017.0 hpa

37 %

14.5 km/h aus 117

22.5 km/h aus SSW

7.1 C

20.8 C

21.8 C

21.6 C

418 W/m

0.00 mm

14:35

22.8 C

1017.0 hpa

39 %

12.9 km/h aus 116

25.7 km/h aus WSW

8.1 C

21.8 C

22.6 C

22.1 C

464 W/m

0.00 mm

14:40

23.0 C

1017.0 hpa

37 %

16.1 km/h aus 115

25.7 km/h aus WSW

7.5 C

21.1 C

21.8 C

22.2 C

498 W/m

0.00 mm

14:45

23.1 C

1016.7 hpa

36 %

16.1 km/h aus 116

27.4 km/h aus SSW

7.2 C

21.1 C

21.9 C

22.2 C

482 W/m

0.00 mm

14:50

23.2 C

1016.7 hpa

35 %

11.3 km/h aus 114

27.4 km/h aus SW

6.9 C

22.3 C

23.2 C

22.3 C

456 W/m

0.00 mm

14:55

23.3 C

1016.7 hpa

35 %

17.7 km/h aus 117

32.2 km/h aus SW

7.0 C

21.1 C

21.9 C

22.5 C

506 W/m

0.00 mm

15:00

23.2 C

1016.7 hpa

34 %

17.7 km/h aus 117

33.8 km/h aus SW

6.4 C

20.9 C

21.8 C

22.3 C

497 W/m

0.00 mm

15:05

23.1 C

1016.7 hpa

36 %

14.5 km/h aus 115

33.8 km/h aus SW

7.2 C

21.5 C

22.3 C

22.2 C

436 W/m

0.00 mm

15:10

23.2 C

1016.7 hpa

35 %

11.3 km/h aus 116

22.5 km/h aus WSW

6.9 C

22.4 C

23.2 C

22.4 C

457 W/m

0.00 mm

15:15

23.3 C

1016.5 hpa

35 %

17.7 km/h aus 117

29.0 km/h aus WSW

7.0 C

21.2 C

21.9 C

22.6 C

462 W/m

0.00 mm

15:20

23.2 C

1016.5 hpa

35 %

14.5 km/h aus 117

25.7 km/h aus SW

6.9 C

21.7 C

22.5 C

22.4 C

347 W/m

0.00 mm

15:25

23.4 C

1016.5 hpa

34 %

14.5 km/h aus 115

25.7 km/h aus W

6.7 C

21.9 C

22.7 C

22.7 C

422 W/m

0.00 mm

15:30

23.3 C

1016.4 hpa

35 %

12.9 km/h aus 114

24.1 km/h aus WSW

7.0 C

22.3 C

23.1 C

22.6 C

392 W/m

0.00 mm

15:35

23.6 C

1016.4 hpa

34 %

12.9 km/h aus 116

22.5 km/h aus SSW

6.8 C

22.6 C

23.3 C

22.8 C

501 W/m

0.00 mm

15:40

23.9 C

1016.4 hpa

34 %

12.9 km/h aus 117

27.4 km/h aus SW

7.1 C

22.9 C

23.6 C

23.2 C

489 W/m

0.00 mm

15:45

23.7 C

1016.3 hpa

33 %

16.1 km/h aus 116

29.0 km/h aus SW

6.5 C

21.8 C

22.6 C

22.9 C

473 W/m

0.00 mm

15:50

23.9 C

1016.3 hpa

34 %

12.9 km/h aus 115

25.7 km/h aus WSW

7.1 C

22.9 C

23.6 C

23.2 C

449 W/m

0.00 mm

15:55

23.9 C

1016.3 hpa

35 %

16.1 km/h aus 116

30.6 km/h aus WSW

7.5 C

22.1 C

22.8 C

23.2 C

450 W/m

0.00 mm

16:00

23.8 C

1016.3 hpa

36 %

16.1 km/h aus 116

24.1 km/h aus SSW

7.8 C

22.1 C

22.7 C

23.2 C

454 W/m

0.00 mm

16:05

23.8 C

1016.3 hpa

36 %

16.1 km/h aus 117

29.0 km/h aus SW

7.9 C

22.1 C

22.7 C

23.2 C

415 W/m

0.00 mm

16:10

23.4 C

1016.3 hpa

36 %

16.1 km/h aus 115

27.4 km/h aus WSW

7.5 C

21.7 C

22.3 C

22.8 C

306 W/m

0.00 mm

16:15

23.4 C

1016.3 hpa

36 %

16.1 km/h aus 115

30.6 km/h aus SW

7.5 C

21.7 C

22.3 C

22.8 C

365 W/m

0.00 mm

16:20

23.3 C

1016.3 hpa

37 %

14.5 km/h aus 115

30.6 km/h aus SW

7.8 C

21.9 C

22.6 C

22.6 C

268 W/m

0.00 mm

16:25

23.3 C

1016.3 hpa

37 %

12.9 km/h aus 115

25.7 km/h aus SSW

7.8 C

22.4 C

23.1 C

22.7 C

304 W/m

0.00 mm

16:30

23.7 C

1016.1 hpa

35 %

12.9 km/h aus 116

24.1 km/h aus WSW

7.3 C

22.7 C

23.4 C

23.0 C

359 W/m

0.00 mm

16:35

23.9 C

1016.1 hpa

35 %

12.9 km/h aus 113

27.4 km/h aus WSW

7.5 C

23.0 C

23.7 C

23.3 C

375 W/m

0.00 mm

16:40

23.7 C

1016.1 hpa

36 %

17.7 km/h aus 115

29.0 km/h aus SW

7.7 C

21.7 C

22.3 C

23.0 C

348 W/m

0.00 mm

16:45

23.7 C

1016.1 hpa

37 %

16.1 km/h aus 116

29.0 km/h aus WSW

8.2 C

22.0 C

22.6 C

23.1 C

344 W/m

0.00 mm

16:50

23.4 C

1016.1 hpa

38 %

17.7 km/h aus 117

32.2 km/h aus WSW

8.3 C

21.5 C

22.1 C

22.9 C

246 W/m

0.00 mm

16:55

23.2 C

1016.1 hpa

39 %

16.1 km/h aus 115

27.4 km/h aus WNW

8.4 C

21.4 C

22.1 C

22.6 C

227 W/m

0.00 mm

17:00

23.3 C

1016.1 hpa

41 %

14.5 km/h aus 115

25.7 km/h aus WSW

9.3 C

22.2 C

22.6 C

22.9 C

275 W/m

0.00 mm

17:05

23.3 C

1016.1 hpa

42 %

17.7 km/h aus 116

25.7 km/h aus W

9.7 C

21.5 C

21.9 C

22.9 C

311 W/m

0.00 mm

17:10

23.5 C

1016.1 hpa

43 %

17.7 km/h aus 117

27.4 km/h aus WSW

10.2 C

21.7 C

22.1 C

23.1 C

360 W/m

0.00 mm

17:15

23.3 C

1016.0 hpa

43 %

17.7 km/h aus 116

30.6 km/h aus W

10.0 C

21.4 C

21.9 C

22.8 C

242 W/m

0.00 mm

17:20

23.2 C

1016.0 hpa

43 %

16.1 km/h aus 114

29.0 km/h aus WSW

9.9 C

21.6 C

22.1 C

22.7 C

195 W/m

0.00 mm

17:25

22.9 C

1016.0 hpa

43 %

16.1 km/h aus 116

27.4 km/h aus WSW

9.7 C

21.2 C

21.8 C

22.4 C

100 W/m

0.00 mm

17:30

22.9 C

1016.0 hpa

43 %

16.1 km/h aus 115

25.7 km/h aus WSW

9.7 C

21.2 C

21.8 C

22.4 C

105 W/m

0.00 mm

17:35

22.9 C

1016.0 hpa

43 %

11.3 km/h aus 116

27.4 km/h aus WSW

9.7 C

22.4 C

22.9 C

22.4 C

88 W/m

0.00 mm

17:40

22.9 C

1016.0 hpa

43 %

14.5 km/h aus 114

25.7 km/h aus W

9.6 C

21.6 C

22.1 C

22.3 C

77 W/m

0.00 mm

17:45

22.8 C

1016.0 hpa

44 %

12.9 km/h aus 115

24.1 km/h aus WSW

9.9 C

21.9 C

22.5 C

22.2 C

74 W/m

0.00 mm

17:50

22.7 C

1016.0 hpa

44 %

14.5 km/h aus 117

29.0 km/h aus W

9.8 C

21.3 C

21.9 C

22.1 C

55 W/m

0.00 mm

17:55

22.6 C

1016.0 hpa

45 %

12.9 km/h aus 117

22.5 km/h aus W

10.1 C

21.7 C

22.3 C

22.0 C

40 W/m

0.00 mm

18:00

22.5 C

1016.2 hpa

45 %

11.3 km/h aus 112

22.5 km/h aus W

10.0 C

21.8 C

22.5 C

21.8 C

34 W/m

0.00 mm

18:05

22.4 C

1016.2 hpa

46 %

12.9 km/h aus 114

27.4 km/h aus WNW

10.2 C

21.4 C

22.1 C

21.7 C

22 W/m

0.00 mm

18:10

22.3 C

1016.2 hpa

46 %

16.1 km/h aus 116

27.4 km/h aus WNW

10.1 C

20.4 C

21.1 C

21.6 C

17 W/m

0.00 mm

18:15

22.2 C

1016.2 hpa

49 %

16.1 km/h aus 117

30.6 km/h aus W

10.9 C

20.4 C

21.0 C

21.6 C

15 W/m

0.00 mm

18:20

22.1 C

1016.2 hpa

50 %

12.9 km/h aus 116

25.7 km/h aus WSW

11.1 C

21.2 C

21.8 C

21.4 C

14 W/m

0.00 mm

18:25

21.9 C

1016.2 hpa

51 %

8.0 km/h aus 114

19.3 km/h aus W

11.3 C

21.3 C

21.9 C

21.3 C

17 W/m

0.00 mm

18:30

21.9 C

1016.4 hpa

53 %

12.9 km/h aus 117

27.4 km/h aus WSW

11.9 C

21.1 C

21.6 C

21.3 C

17 W/m

0.00 mm

18:35

21.8 C

1016.4 hpa

56 %

16.1 km/h aus 117

27.4 km/h aus WSW

12.6 C

20.2 C

20.6 C

21.3 C

17 W/m

0.00 mm

18:40

21.7 C

1016.4 hpa

58 %

19.3 km/h aus 117

33.8 km/h aus W

13.0 C

19.6 C

19.9 C

21.3 C

14 W/m

0.00 mm

18:45

21.6 C

1016.4 hpa

60 %

16.1 km/h aus 114

27.4 km/h aus W

13.5 C

20.1 C

20.4 C

21.2 C

15 W/m

0.00 mm

18:50

21.4 C

1016.4 hpa

61 %

16.1 km/h aus 115

29.0 km/h aus W

13.6 C

19.9 C

20.2 C

21.1 C

13 W/m

0.00 mm

18:55

21.3 C

1016.4 hpa

62 %

16.1 km/h aus 116

27.4 km/h aus W

13.7 C

19.8 C

20.1 C

21.0 C

9 W/m

0.00 mm

19:00

21.2 C

1016.4 hpa

64 %

14.5 km/h aus 117

24.1 km/h aus WNW

14.1 C

20.2 C

20.4 C

20.9 C

5 W/m

0.00 mm

19:05

21.1 C

1016.4 hpa

64 %

12.9 km/h aus 115

25.7 km/h aus WSW

14.0 C

20.6 C

20.8 C

20.8 C

3 W/m

0.00 mm

19:10

20.9 C

1016.4 hpa

65 %

14.5 km/h aus 114

30.6 km/h aus NW

14.1 C

20.0 C

20.1 C

20.8 C

0 W/m

0.00 mm

19:15

20.7 C

1016.4 hpa

66 %

14.5 km/h aus 115

25.7 km/h aus NW

14.1 C

19.9 C

19.9 C

20.7 C

0 W/m

0.00 mm

19:20

20.6 C

1016.4 hpa

67 %

12.9 km/h aus 117

22.5 km/h aus WNW

14.2 C

20.2 C

20.2 C

20.6 C

0 W/m

0.00 mm

19:25

20.4 C

1016.4 hpa

68 %

12.9 km/h aus 117

27.4 km/h aus WNW

14.3 C

20.2 C

20.0 C

20.6 C

0 W/m

0.00 mm

19:30

20.2 C

1016.6 hpa

69 %

14.5 km/h aus 115

24.1 km/h aus WNW

14.3 C

19.7 C

19.4 C

20.4 C

0 W/m

0.00 mm

19:35

19.9 C

1016.6 hpa

71 %

17.7 km/h aus 116

27.4 km/h aus WNW

14.5 C

18.8 C

18.5 C

20.3 C

0 W/m

0.00 mm

19:40

19.6 C

1016.6 hpa

73 %

14.5 km/h aus 117

25.7 km/h aus NNW

14.6 C

19.2 C

18.8 C

19.9 C

0 W/m

0.00 mm

19:45

19.2 C

1017.1 hpa

76 %

14.5 km/h aus 117

25.7 km/h aus NW

14.8 C

18.8 C

18.4 C

19.6 C

0 W/m

0.00 mm

19:50

18.8 C

1017.1 hpa

78 %

14.5 km/h aus 117

25.7 km/h aus WNW

14.9 C

18.4 C

18.1 C

19.2 C

0 W/m

0.00 mm

19:55

18.3 C

1017.1 hpa

79 %

12.9 km/h aus 115

24.1 km/h aus WNW

14.6 C

18.3 C

18.0 C

18.7 C

0 W/m

0.00 mm

20:00

17.9 C

1017.2 hpa

81 %

11.3 km/h aus 116

20.9 km/h aus NW

14.6 C

18.3 C

17.9 C

18.3 C

0 W/m

0.00 mm

20:05

17.6 C

1017.2 hpa

82 %

12.9 km/h aus 117

20.9 km/h aus NW

14.4 C

17.4 C

17.1 C

17.8 C

0 W/m

0.00 mm

20:10

17.3 C

1017.2 hpa

84 %

6.4 km/h aus 116

16.1 km/h aus WNW

14.6 C

17.6 C

17.3 C

17.6 C

0 W/m

0.00 mm

20:15

17.2 C

1017.4 hpa

84 %

6.4 km/h aus 116

14.5 km/h aus WNW

14.5 C

17.5 C

17.2 C

17.5 C

0 W/m

0.00 mm

20:20

17.1 C

1017.4 hpa

85 %

6.4 km/h aus 115

19.3 km/h aus WNW

14.5 C

17.3 C

17.1 C

17.3 C

0 W/m

0.00 mm

20:25

16.9 C

1017.4 hpa

85 %

8.0 km/h aus 117

19.3 km/h aus NW

14.4 C

17.2 C

16.9 C

17.2 C

0 W/m

0.00 mm

20:30

16.8 C

1017.4 hpa

85 %

6.4 km/h aus 116

16.1 km/h aus W

14.3 C

17.1 C

16.8 C

17.1 C

0 W/m

0.00 mm

20:35

16.7 C

1017.4 hpa

86 %

11.3 km/h aus 116

19.3 km/h aus W

14.3 C

16.7 C

16.5 C

16.8 C

0 W/m

0.00 mm

20:40

16.5 C

1017.4 hpa

86 %

8.0 km/h aus 114

22.5 km/h aus WNW

14.1 C

16.7 C

16.5 C

16.7 C

0 W/m

0.00 mm

20:45

16.4 C

1017.4 hpa

86 %

8.0 km/h aus 115

17.7 km/h aus WNW

14.0 C

16.6 C

16.4 C

16.6 C

0 W/m

0.00 mm

20:50

16.3 C

1017.4 hpa

87 %

4.8 km/h aus 117

17.7 km/h aus NNW

14.1 C

16.4 C

16.3 C

16.4 C

0 W/m

0.00 mm

20:55

16.2 C

1017.4 hpa

87 %

6.4 km/h aus 117

14.5 km/h aus WNW

14.0 C

16.3 C

16.2 C

16.3 C

0 W/m

0.00 mm

21:00

16.1 C

1017.6 hpa

87 %

6.4 km/h aus 117

11.3 km/h aus NW

13.9 C

16.3 C

16.1 C

16.3 C

0 W/m

0.00 mm

21:05

16.1 C

1017.6 hpa

88 %

6.4 km/h aus 115

11.3 km/h aus WNW

14.1 C

16.2 C

16.1 C

16.2 C

0 W/m

0.00 mm

21:10

16.0 C

1017.6 hpa

88 %

8.0 km/h aus 115

16.1 km/h aus W

14.0 C

16.2 C

16.0 C

16.2 C

0 W/m

0.00 mm

21:15

15.9 C

1017.6 hpa

88 %

6.4 km/h aus 117

11.3 km/h aus WNW

14.0 C

16.1 C

15.9 C

16.1 C

0 W/m

0.00 mm

21:20

15.9 C

1017.6 hpa

88 %

8.0 km/h aus 117

14.5 km/h aus WNW

13.9 C

16.1 C

15.9 C

16.1 C

0 W/m

0.00 mm

21:25

15.8 C

1017.6 hpa

88 %

6.4 km/h aus 117

9.7 km/h aus W

13.8 C

16.0 C

15.8 C

16.0 C

0 W/m

0.00 mm

21:30

15.8 C

1017.7 hpa

89 %

6.4 km/h aus 113

14.5 km/h aus W

14.0 C

16.0 C

15.8 C

16.0 C

0 W/m

0.00 mm

21:35

15.8 C

1017.7 hpa

89 %

4.8 km/h aus 114

11.3 km/h aus WNW

14.0 C

15.9 C

15.8 C

15.9 C

0 W/m

0.00 mm

21:40

15.8 C

1017.7 hpa

89 %

6.4 km/h aus 117

9.7 km/h aus WNW

14.0 C

15.9 C

15.8 C

15.9 C

0 W/m

0.00 mm

21:45

15.7 C

1017.7 hpa

89 %

8.0 km/h aus 117

14.5 km/h aus W

13.9 C

15.8 C

15.7 C

15.8 C

0 W/m

0.00 mm

21:50

15.6 C

1017.7 hpa

88 %

4.8 km/h aus 116

11.3 km/h aus W

13.6 C

15.7 C

15.6 C

15.7 C

0 W/m

0.00 mm

21:55

15.4 C

1017.7 hpa

88 %

4.8 km/h aus 114

11.3 km/h aus W

13.5 C

15.6 C

15.4 C

15.6 C

0 W/m

0.00 mm

22:00

15.4 C

1017.6 hpa

88 %

6.4 km/h aus 117

9.7 km/h aus W

13.4 C

15.5 C

15.4 C

15.5 C

0 W/m

0.00 mm

22:05

15.3 C

1017.6 hpa

89 %

4.8 km/h aus 116

8.0 km/h aus W

13.5 C

15.4 C

15.3 C

15.4 C

0 W/m

0.00 mm

22:10

15.3 C

1017.6 hpa

88 %

6.4 km/h aus 118

16.1 km/h aus WNW

13.3 C

15.4 C

15.3 C

15.4 C

0 W/m

0.00 mm

22:15

15.2 C

1017.7 hpa

88 %

4.8 km/h aus 115

8.0 km/h aus WNW

13.2 C

15.3 C

15.2 C

15.3 C

0 W/m

0.00 mm

22:20

15.2 C

1017.7 hpa

88 %

6.4 km/h aus 115

16.1 km/h aus WSW

13.2 C

15.2 C

15.2 C

15.2 C

0 W/m

0.00 mm

22:25

15.1 C

1017.7 hpa

88 %

3.2 km/h aus 115

8.0 km/h aus WSW

13.1 C

15.2 C

15.1 C

15.2 C

0 W/m

0.00 mm

22:30

15.1 C

1017.6 hpa

88 %

6.4 km/h aus 117

11.3 km/h aus WSW

13.1 C

15.1 C

15.1 C

15.1 C

0 W/m

0.00 mm

22:35

15.1 C

1017.6 hpa

87 %

4.8 km/h aus 117

11.3 km/h aus W

12.9 C

15.1 C

15.1 C

15.1 C

0 W/m

0.00 mm

22:40

15.1 C

1017.6 hpa

88 %

6.4 km/h aus 116

11.3 km/h aus W

13.1 C

15.1 C

15.1 C

15.1 C

0 W/m

0.00 mm

22:45

15.1 C

1017.8 hpa

87 %

6.4 km/h aus 115

11.3 km/h aus WSW

12.9 C

15.1 C

15.1 C

15.1 C

0 W/m

0.00 mm

22:50

15.1 C

1017.8 hpa

87 %

6.4 km/h aus 116

11.3 km/h aus WSW

13.0 C

15.2 C

15.1 C

15.2 C

0 W/m

0.00 mm

22:55

15.1 C

1017.8 hpa

87 %

4.8 km/h aus 115

9.7 km/h aus SW

13.0 C

15.2 C

15.1 C

15.2 C

0 W/m

0.00 mm

23:00

15.1 C

1017.5 hpa

87 %

4.8 km/h aus 115

8.0 km/h aus WSW

13.0 C

15.2 C

15.1 C

15.2 C

0 W/m

0.00 mm

23:05

15.2 C

1017.5 hpa

87 %

4.8 km/h aus 113

11.3 km/h aus WSW

13.0 C

15.2 C

15.2 C

15.2 C

0 W/m

0.00 mm

23:10

15.2 C

1017.5 hpa

87 %

8.0 km/h aus 115

16.1 km/h aus WNW

13.0 C

15.2 C

15.1 C

15.2 C

0 W/m

0.00 mm

23:15

15.1 C

1017.6 hpa

87 %

9.7 km/h aus 118

17.7 km/h aus WSW

13.0 C

14.8 C

14.8 C

15.2 C

0 W/m

0.00 mm

23:20

15.1 C

1017.6 hpa

86 %

6.4 km/h aus 117

11.3 km/h aus W

12.8 C

15.2 C

15.1 C

15.2 C

0 W/m

0.00 mm

23:25

15.2 C

1017.6 hpa

86 %

6.4 km/h aus 117

14.5 km/h aus W

12.8 C

15.2 C

15.2 C

15.2 C

0 W/m

0.00 mm

23:30

15.2 C

1017.5 hpa

86 %

6.4 km/h aus 115

9.7 km/h aus W

12.8 C

15.2 C

15.2 C

15.2 C

0 W/m

0.00 mm

23:35

15.2 C

1017.5 hpa

86 %

6.4 km/h aus 115

11.3 km/h aus W

12.8 C

15.2 C

15.2 C

15.2 C

0 W/m

0.00 mm

23:40

15.2 C

1017.5 hpa

86 %

6.4 km/h aus 117

11.3 km/h aus W

12.8 C

15.2 C

15.2 C

15.2 C

0 W/m

0.00 mm

23:45

15.2 C

1017.5 hpa

86 %

6.4 km/h aus 115

11.3 km/h aus WNW

12.8 C

15.2 C

15.2 C

15.2 C

0 W/m

0.00 mm

23:50

15.1 C

1017.5 hpa

86 %

8.0 km/h aus 117

16.1 km/h aus WNW

12.8 C

15.1 C

15.0 C

15.2 C

0 W/m

0.00 mm

23:55

15.1 C

1017.5 hpa

86 %

6.4 km/h aus 114

11.3 km/h aus W

12.8 C

15.2 C

15.1 C

15.2 C

0 W/m

0.00 mm